GW0098 Weather Reports


time (UTC)temp
C
wind
direction
speed
KPH
gust
KPH
rain 1hr
cm
rain 24hr
cm
rain mn
cm
humidity
%
barometer
mb
20260507091554 7 0.0 0.0 0.00 0.00 0.00 85 1019.3
20260507090059 7 0.0 0.0 0.00 0.00 0.00 83 1018.7
20260507084603 8 0.0 0.0 0.00 0.00 0.00 82 1018.6
20260507083054 8 0.0 0.0 0.00 0.00 0.00 80 1018.5
20260507081558 9 0.0 0.0 0.00 0.00 0.00 78 1018.8
20260507080055 9 0.0 0.0 0.00 0.00 0.00 81 1019.0
20260507074557 9 0.0 0.0 0.00 0.00 0.00 80 1019.1
20260507073054 10 0.0 0.0 0.00 0.00 0.00 77 1019.0
20260507071610 10 0.0 0.0 0.00 0.00 0.00 76 1018.8
20260507064556 10 0.0 0.0 0.00 0.00 0.00 75 1019.1
20260507063057 10 0.0 0.0 0.00 0.00 0.00 74 1018.9
20260507061555 11 0.0 0.0 0.00 0.00 0.00 73 1018.7
20260507054609 11 0.0 0.0 0.00 0.00 0.00 73 1018.9
20260507053104 11 0.0 0.0 0.00 0.00 0.00 73 1018.9
20260507051558 11 0.0 0.0 0.00 0.00 0.00 71 1018.8
20260507050059 12 0.0 0.0 0.00 0.00 0.00 70 1018.7
20260507044556 12 0.0 0.0 0.00 0.00 0.00 71 1018.5
20260507043053 12 0.0 0.0 0.00 0.00 0.00 72 1018.5
20260507041602 12 0.0 0.0 0.00 0.00 0.00 73 1018.5
20260507040055 11 0.0 0.0 0.00 0.00 0.00 79 1018.4
20260507034605 11 0.0 0.0 0.00 0.00 0.00 81 1018.4
20260507033056 11 0.0 0.0 0.00 0.00 0.00 80 1018.2
20260507031600 11 0.0 0.0 0.00 0.00 0.00 80 1017.8
20260507030053 11 0.0 0.0 0.00 0.00 0.00 80 1017.9
20260507024556 12 0.0 0.0 0.00 0.00 0.00 79 1017.9
20260507023056 12 0.0 0.0 0.00 0.00 0.00 78 1017.6
20260507021618 12 0.0 0.0 0.00 0.00 0.00 77 1017.3
20260507020110 13 0.0 0.0 0.00 0.00 0.00 74 1017.4
20260507014620 14 0.0 0.0 0.00 0.00 0.00 71 1017.1
20260507013053 15 0.0 0.0 0.00 0.00 0.00 69 1016.8
20260507011558 15 0.0 0.0 0.00 0.00 0.00 67 1016.8
20260507010054 15 0.0 0.0 0.00 0.00 0.00 65 1016.6
20260507004554 15 0.0 0.0 0.00 0.00 0.00 64 1016.5
20260507003056 16 0.0 0.0 0.00 0.00 0.00 64 1016.6
20260507001602 16 0.0 0.0 0.00 0.00 0.00 63 1016.6
20260507000111 16 0.0 0.0 0.00 0.00 0.00 63 1016.4
20260506234615 16 0.0 0.0 0.00 0.00 0.00 61 1016.4
20260506233056 16 0.0 0.0 0.00 0.00 0.00 62 1016.4
20260506231553 16 0.0 0.0 0.00 0.00 0.00 61 1016.4
20260506230103 16 0.0 0.0 0.00 0.00 0.00 61 1016.4
20260506224552 17 0.0 0.0 0.00 0.00 0.00 61 1016.2
20260506223053 16 0.0 0.0 0.00 0.00 0.00 62 1016.0
20260506221600 17 0.0 0.0 0.00 0.00 0.00 60 1015.9
20260506220056 16 0.0 0.0 0.00 0.00 0.00 60 1015.6
20260506214600 16 0.0 0.0 0.00 0.00 0.00 63 1015.4
20260506213059 16 0.0 0.0 0.00 0.00 0.00 62 1015.1
20260506211556 16 0.0 0.0 0.00 0.00 0.00 61 1015.4
20260506210055 16 0.0 0.0 0.00 0.00 0.00 62 1015.3
20260506204556 15 0.0 0.0 0.00 0.00 0.00 65 1015.3
20260506203054 15 0.0 0.0 0.00 0.00 0.00 65 1015.5
20260506201553 14 0.0 0.0 0.00 0.00 0.00 69 1015.4
20260506200058 13 0.0 0.0 0.00 0.00 0.00 71 1016.1
20260506194557 13 0.0 0.0 0.00 0.00 0.00 71 1016.2
20260506193055 13 0.0 0.0 0.00 0.00 0.00 70 1016.2
20260506191601 13 0.0 0.0 0.00 0.00 0.00 69 1017.2
20260506190054 13 0.0 0.0 0.00 0.00 0.00 68 1017.3
20260506184600 13 0.0 0.0 0.00 0.00 0.00 72 1017.3
20260506183105 13 0.0 0.0 0.00 0.00 0.00 70 1017.4
20260506181608 13 0.0 0.0 0.00 0.00 0.00 70 1017.3
20260506180056 13 0.0 0.0 0.00 0.00 0.00 70 1017.7
20260506174552 13 0.0 0.0 0.00 0.00 0.00 70 1017.2
20260506173126 13 0.0 0.0 0.00 0.00 0.00 70 1017.3
20260506171604 13 0.0 0.0 0.00 0.00 0.00 72 1017.6
20260506170107 12 0.0 0.0 0.00 0.00 0.00 73 1017.9
20260506164556 12 0.0 0.0 0.00 0.00 0.00 74 1018.2
20260506163101 11 0.0 0.0 0.00 0.00 0.00 75 1018.9
20260506161554 11 0.0 0.0 0.00 0.00 0.00 74 1018.4
20260506160058 11 0.0 0.0 0.00 0.00 0.00 74 1017.6
20260506154613 11 0.0 0.0 0.00 0.00 0.00 75 1017.6
20260506153054 11 0.0 0.0 0.00 0.00 0.00 76 1017.5
20260506151558 11 0.0 0.0 0.00 0.00 0.00 76 1017.1
20260506150055 11 0.0 0.0 0.00 0.00 0.00 76 1017.0
20260506144559 10 0.0 0.0 0.00 0.00 0.00 75 1016.7
20260506143052 10 0.0 0.0 0.00 0.00 0.00 75 1016.6
20260506141600 10 0.0 0.0 0.00 0.00 0.00 76 1016.3
20260506140054 10 0.0 0.0 0.00 0.00 0.00 74 1016.3
20260506134554 10 0.0 0.0 0.00 0.00 0.00 74 1016.1
20260506133102 10 0.0 0.0 0.00 0.00 0.00 77 1016.2
20260506131554 10 0.0 0.0 0.00 0.00 0.00 79 1015.9
20260506130119 10 0.0 0.0 0.00 0.00 0.00 79 1015.9
20260506124554 10 0.0 0.0 0.00 0.00 0.00 81 1015.6
20260506123053 10 0.0 0.0 0.00 0.00 0.00 80 1015.8
20260506121556 10 0.0 0.0 0.00 0.00 0.00 81 1016.0
20260506114604 10 0.0 0.0 0.00 0.00 0.00 80 1015.4
20260506113056 10 0.0 0.0 0.00 0.00 0.00 80 1014.6
20260506111557 10 0.0 0.0 0.00 0.00 0.00 79 1014.7
20260506110057 10 0.0 0.0 0.00 0.00 0.00 79 1014.6
20260506104632 10 0.0 0.0 0.00 0.00 0.00 79 1014.4
20260506103108 10 0.0 0.0 0.00 0.00 0.00 81 1014.2
20260506101555 10 0.0 0.0 0.00 0.00 0.00 83 1014.1
20260506100056 10 0.0 0.0 0.00 0.00 0.00 83 1013.6
20260506094553 10 0.0 0.0 0.00 0.00 0.00 84 1013.7
20260506093054 10 0.0 0.0 0.00 0.00 0.00 84 1013.0